Simultaneous Nadir Overpasses (SNOs) Predictions

Prediction of SNOs between NOAA-19 and NPP Satellite Orbit:

Table of predicted SNOs for the next 14.0 days since TLE Epoch: 6/1/2018
Index Date (NOAA-19) Time (NOAA-19) Lat,Lon (NOAA-19) SZA (NOAA-19 ) Date (NPP) Time (NPP) Lat,Lon (NPP) SZA (NPP ) Distance(km) Time Diff (sec)
1 06/11/2018 09:13:43 -80.43, 173.96 119.37 06/11/2018 09:14:50 -80.45, 177.23 119.81 60.40 67
2 06/11/2018 10:04:32 80.54, -16.71 60.43 06/11/2018 10:05:39 80.54, -16.71 60.40 0.38 67
3 06/11/2018 10:55:38 -80.54, 150.56 119.58 06/11/2018 10:56:24 -80.55, 150.50 119.59 1.49 46
4 06/11/2018 11:46:33 80.54, -42.15 60.42 06/11/2018 11:47:09 80.54, -42.12 60.40 0.75 36
5 06/11/2018 12:37:39 -80.54, 125.11 119.59 06/11/2018 12:37:54 -80.55, 125.09 119.59 1.05 15
6 06/11/2018 13:28:34 80.54, -67.60 60.42 06/11/2018 13:28:39 80.55, -67.53 60.41 1.36 5
7 06/11/2018 14:19:40 -80.54, 99.67 119.60 06/11/2018 14:19:24 -80.55, 99.68 119.58 0.98 16
8 06/11/2018 15:10:35 80.55, -93.04 60.41 06/11/2018 15:10:09 80.55, -92.94 60.41 2.00 26
9 06/11/2018 16:01:41 -80.55, 74.22 119.61 06/11/2018 16:00:54 -80.56, 74.27 119.58 1.34 47
10 06/11/2018 16:52:36 80.55,-118.49 60.40 06/11/2018 16:51:39 80.55,-118.35 60.41 2.64 57




NCC Satellite Simultaneous Nadir Overpasses (SNOs) Prediction Service
